Meteo Giornale » Osservazioni meteo Italia » Bologna-Borgo Panigale

ore: 01:50 - Osservazioni Meteo Bologna-Borgo Panigale
Lat. 44° 32' N Lon. 11° 18' E Alt. 36 metri s.l.m.

coperto_pioggia Europe/Rome

15 °C

Pioggia Debole

Temp. 24 Ore

15 °C

20 °C

Est

14.8 Km/h

Dew point 15 °C

Umidità 100 %

Visibilità  6 Km

Il sole sorge alle ore 05:34

Il sole tramonta alle ore 20:49

Data e Ora Cielo e Fenomeni T °C DP °C Um. % Pres. hPa Vis. km Vento km/h
Oggi h: 01:50 coperto_pioggia Pioggia Debole 15 15 100 1011 6 E 14.8
Oggi h: 01:20 coperto_pioggia Pioggia Debole 16 15 93 1011 6 E 16.7
Oggi h: 00:20 coperto_pioggia Pioggia Foschia 16 16 100 1012 4 E 22.2
Ieri h: 23:50 coperto_pioggia Pioggia Foschia 16 15 93 1012 3 E/NE 14.8
Ieri h: 23:20 coperto_pioggia Pioggia Foschia 16 15 93 1012 4 E/NE 16.7
Ieri h: 22:50 coperto_pioggia Pioggia Debole 17 16 93 1012 8 NE 7.4
Ieri h: 22:20 coperto_pioggia Pioggia Debole 17 15 88 1012 7 NE 7.4
Ieri h: 21:50 coperto_pioggia Pioggia Debole 17 15 88 1012 10 N 5.5
Ieri h: 21:20 coperto_pioggia Pioggia Debole 17 15 88 1012 8 E 9.3
Ieri h: 20:50 coperto_pioggia Pioggia Debole 17 15 88 1012 8 E 11.1
Ieri h: 20:20 coperto_pioggia Pioggia Debole 17 15 88 1012 8 E 11.1
Ieri h: 19:50 coperto_pioggia Pioggia Debole 17 15 88 1012 8 E 9.3
Ieri h: 19:20 coperto_pioggia Pioggia Debole 17 15 88 1012 8 E/SE 20.3
Ieri h: 18:50 molto_nuvoloso Molto Nuvoloso 19 14 72 1012 10 E 18.5
Ieri h: 18:20 molto_nuvoloso Molto Nuvoloso 19 15 77 1012 10 E 14.8
Ieri h: 17:50 molto_nuvoloso Molto Nuvoloso 19 15 77 1012 10 E 16.7
Ieri h: 17:20 molto_nuvoloso Molto Nuvoloso 19 15 77 1012 10 E 16.7
Ieri h: 16:50 molto_nuvoloso Molto Nuvoloso 19 14 72 1013 10 E 18.5
Ieri h: 16:20 molto_nuvoloso Molto Nuvoloso 20 15 72 1013 10 E 18.5
Ieri h: 15:50 molto_nuvoloso Molto Nuvoloso 20 15 72 1013 10 E 14.8
Ieri h: 15:20 coperto_pioggia Pioggia Debole 20 16 77 1013 8 E 16.7
Ieri h: 14:50 coperto_pioggia Pioggia Debole Foschia 19 17 88 1013 4 N 7.4
Ieri h: 14:20 coperto_pioggia Pioggia Foschia 19 16 82 1013 4 O/NO 9.3
Ieri h: 13:50 molto_nuvoloso Molto Nuvoloso 19 17 88 1013 6 O 11.1
Ieri h: 13:20 molto_nuvoloso Molto Nuvoloso 19 16 82 1014 6 O/NO 9.3
Ieri h: 12:50 foschia Foschia 18 16 88 1014 4 O/NO 7.4
Ieri h: 12:20 foschia Foschia 18 16 88 1014 5 O 7.4
Ieri h: 11:50 coperto_pioggia Pioggia Debole Foschia 17 16 93 1014 4 O 11.1
Ieri h: 11:20 coperto_pioggia Pioggia Debole 17 15 88 1014 6 O/NO 7.4
Ieri h: 10:50 coperto_pioggia Pioggia Debole 17 15 88 1015 6 O 11.1
Ieri h: 10:20 coperto_pioggia Pioggia Debole 17 15 88 1014 6 O 11.1
Ieri h: 09:50 coperto_pioggia Pioggia Debole 17 15 88 1014 6 O 13
Ieri h: 09:20 foschia Foschia 16 15 93 1014 4 O 11.1
Ieri h: 08:50 foschia Foschia 16 15 93 1014 4 O 13
Ieri h: 08:20 foschia Foschia 16 15 93 1014 4 O 11.1
Ieri h: 07:50 foschia Foschia 16 15 93 1014 4 O 7.4
Ieri h: 07:20 foschia Foschia 16 15 93 1014 3 O/NO 7.4
Ieri h: 06:50 foschia Foschia 16 15 93 1014 4 N 5.5
Ieri h: 05:50 foschia Foschia 15 15 100 1014 4 O 9.3
Ieri h: 05:20 molto_nuvoloso Molto Nuvoloso 15 15 100 1014 7 O 7.4
Ieri h: 04:50 molto_nuvoloso Molto Nuvoloso 15 15 100 1014 7 N 5.5
Ieri h: 04:20 coperto_pioggia Pioggia Debole 15 15 100 1013 7 N 5.5
Ieri h: 03:50 coperto_pioggia Pioggia Debole 15 15 100 1014 7 O/NO 7.4
Ieri h: 03:20 coperto_pioggia Pioggia Debole 15 15 100 1014 8 N 3.7
Ieri h: 02:50 sereno Sereno 16 15 93 1014 10 N 3.7